This is the latest recevied weather packets stored in our database for station/object KD5HIA. If no packets are shown the sender has not sent any weather packets the latest 10 day(s).
| Time | Temp. | Humidity | Pressure | Rain* | Wind** | Luminosity | Snow |
|---|---|---|---|---|---|---|---|
| 1788135916 | 96° F | 32% | 759.3 mmHg | 0 in | - | 95 W/m² | - |
| 1788135316 | 96° F | 32% | 759.4 mmHg | 0 in | - | 158 W/m² | - |
| 1788134716 | 97° F | 31% | 759.3 mmHg | 0 in | - | 200 W/m² | - |
| 1788134116 | 97° F | 31% | 759.4 mmHg | 0 in | - | 228 W/m² | - |
| 1788133516 | 97° F | 31% | 759.4 mmHg | 0 in | - | 270 W/m² | - |
| 1788132916 | 98° F | 30% | 759.4 mmHg | 0 in | - | 301 W/m² | - |
| 1788132316 | 98° F | 30% | 759.7 mmHg | 0 in | - | 319 W/m² | - |
| 1788131716 | 98° F | 29% | 759.6 mmHg | 0 in | - | 367 W/m² | - |
| 1788131116 | 98° F | 31% | 759.5 mmHg | 0 in | - | 343 W/m² | - |
| 1788130516 | 98° F | 31% | 759.7 mmHg | 0 in | - | 454 W/m² | - |
| 1788129916 | 97° F | 32% | 759.6 mmHg | 0 in | - | 127 W/m² | - |
| 1788129316 | 99° F | 31% | 759.7 mmHg | 0 in | - | 520 W/m² | - |
| 1788128716 | 99° F | 31% | 759.9 mmHg | 0 in | - | 537 W/m² | - |
| 1788128116 | 99° F | 29% | 759.8 mmHg | 0 in | - | 600 W/m² | - |
| 1788127516 | 99° F | 32% | 759.9 mmHg | 0 in | - | 626 W/m² | - |
| 1788126916 | 99° F | 31% | 760 mmHg | 0 in | - | 637 W/m² | - |
| 1788126316 | 99° F | 32% | 760.1 mmHg | 0 in | - | 660 W/m² | - |
| 1788125716 | 99° F | 33% | 760.1 mmHg | 0 in | - | 684 W/m² | - |
| 1788125116 | 99° F | 31% | 760.2 mmHg | 0 in | - | 733 W/m² | - |
| 1788124516 | 99° F | 31% | 760.3 mmHg | 0 in | - | 776 W/m² | - |
| 1788123916 | 99° F | 31% | 760.6 mmHg | 0 in | - | 788 W/m² | - |
| 1788123316 | 99° F | 32% | 760.7 mmHg | 0 in | - | 803 W/m² | - |
| 1788122716 | 99° F | 33% | 760.9 mmHg | 0 in | - | 818 W/m² | - |
| 1788122116 | 98° F | 32% | 760.9 mmHg | 0 in | - | 844 W/m² | - |
| 1788121516 | 98° F | 33% | 761.2 mmHg | 0 in | - | 840 W/m² | - |
* Rain latest hour (hover to see other rain measurements)
** Current wind speed in m/s (hover to see current wind gust speed)